McGregor, TX

9:33 PM CST on November 14, 2019 (GMT -0600)
McGregor Executive

Weather History for KPWG - October, 2019

Change the Weather History Date:

Monday, October 21, 2019

  Actual Average Record
Temperature  
Mean Temperature - -  
Max Temperature - 74 °F 91 °F (2012)
Min Temperature - 55 °F 41 °F (1999)
Moisture  
Dew Point -    
Average Humidity    
Maximum Humidity    
Minimum Humidity    
Precipitation  
Precipitation 0.02 in - - ()
Sea Level Pressure  
Sea Level Pressure 29.88 in    
Wind  
Wind Speed 11 mph ()    
Max Wind Speed 22 mph    
Max Gust Speed 33 mph    
Visibility 8.7 miles    
Events Rain , Thunderstorm    
Averages and records for this station are not official NWS values.
T = Trace of Precipitation, MM = Missing Value Source: Averaged Metar Reports

Daily Weather History Graph

Daily Weather History Graph

Search for Another Location

Airport or City:

Astronomy

Oct. 21, 2019 Rise Set
Actual Time 7:36 AM CDT 6:50 PM CDT
Civil Twilight 7:11 AM CDT 7:15 PM CDT
Nautical Twilight 6:43 AM CDT 7:43 PM CDT
Astronomical Twilight 6:15 AM CDT 8:12 PM CDT
Moon 12:16 AM CDT (10/21) 2:42 PM CDT (10/21)
Length of Visible Light 12h 03m
Length of Day
11h 14m
Waning Gibbous, 48% of the Moon is Illuminated
Oct 21
Waning Gibbous
Oct 27
New
Nov 4
First Quarter
Nov 12
Full
Nov 19
Last Quarter

Hourly Weather History & Observations

Time (CDT) Temp. Dew Point Humidity Pressure Visibility Wind Dir Wind Speed Gust Speed Precip Events Conditions
12:56 AM - - N/A% 29.61 in 10.0 mi South 21.9 mph 32.2 mph N/A   Partly Cloudy
1:22 AM - - N/A% 29.63 in 10.0 mi South 17.3 mph 27.6 mph N/A   Mostly Cloudy
1:56 AM - - N/A% 29.67 in 10.0 mi SSW 18.4 mph 28.8 mph N/A   Overcast
2:42 AM - - N/A% 29.79 in 2.0 mi WNW 12.7 mph 33.4 mph N/A Rain Heavy Rain
2:48 AM - - N/A% 29.78 in 3.0 mi WNW 15.0 mph 21.9 mph N/A Rain Rain
2:56 AM - - N/A% 29.79 in 10.0 mi WNW 12.7 mph 20.7 mph N/A Rain Light Rain
3:56 AM - - N/A% 29.75 in 10.0 mi WNW 10.4 mph - 0.02 in Rain Light Rain
4:56 AM - - N/A% 29.77 in 10.0 mi NNW 5.8 mph - 0.00 in   Mostly Cloudy
5:17 AM - - N/A% 29.80 in 10.0 mi NNW 8.1 mph - 0.00 in Thunderstorm Partly Cloudy
5:42 AM - - N/A% 29.80 in 10.0 mi NNW 8.1 mph - 0.00 in   Clear
5:52 AM - - N/A% 29.80 in 10.0 mi NNW 9.2 mph - 0.00 in Thunderstorm Clear
5:56 AM - - N/A% 29.81 in 10.0 mi NNW 10.4 mph - 0.00 in Thunderstorm Clear
6:08 AM - - N/A% 29.81 in 10.0 mi NNW 9.2 mph - N/A   Clear
6:20 AM - - N/A% 29.82 in 10.0 mi NNW 10.4 mph - N/A Thunderstorm Clear
6:38 AM - - N/A% 29.84 in 10.0 mi NW 8.1 mph - N/A   Clear
6:56 AM - - N/A% 29.85 in 10.0 mi NNW 8.1 mph - N/A   Clear
7:56 AM - - N/A% 29.87 in 10.0 mi NW 6.9 mph - N/A   Clear
8:56 AM - - N/A% 29.90 in 10.0 mi NNW 10.4 mph - N/A   Clear
9:56 AM - - N/A% 29.93 in 10.0 mi North 10.4 mph - N/A   Clear
10:56 AM - - N/A% 29.94 in 10.0 mi North 16.1 mph 19.6 mph N/A   Clear
11:07 AM - - N/A% 29.95 in 10.0 mi North 16.1 mph - N/A   Partly Cloudy
11:56 AM - - N/A% 29.96 in 10.0 mi NNE 15.0 mph - N/A   Clear
12:56 PM - - N/A% 29.95 in 10.0 mi North 12.7 mph 18.4 mph N/A   Clear
1:56 PM - - N/A% 29.93 in 9.0 mi NNE 9.2 mph - N/A   Clear
2:56 PM - - N/A% 29.92 in 10.0 mi NNW 10.4 mph - N/A   Clear
3:56 PM - - N/A% 29.92 in 10.0 mi North 10.4 mph - N/A   Clear
4:56 PM - - N/A% 29.92 in 10.0 mi ENE 6.9 mph - N/A   Clear
5:56 PM - - N/A% 29.92 in 10.0 mi North 6.9 mph - N/A   Clear
6:51 PM - - N/A% 29.95 in 1.8 mi North 4.6 mph - N/A   Clear
6:56 PM - - N/A% 29.95 in 2.5 mi NNE 4.6 mph - N/A   Clear
7:03 PM - - N/A% 29.95 in 10.0 mi NNE 4.6 mph - N/A   Clear
7:14 PM - - N/A% 29.96 in 1.8 mi NNE 5.8 mph - N/A   Clear
7:28 PM - - N/A% 29.97 in 3.0 mi NNE 4.6 mph - N/A   Clear
7:56 PM - - N/A% 29.99 in 6.0 mi East 3.5 mph - N/A   Haze
8:56 PM - - N/A% 30.03 in 10.0 mi Calm Calm - N/A   Clear
9:56 PM - - N/A% 30.06 in 10.0 mi Calm Calm - N/A   Clear
10:56 PM - - N/A% 30.08 in 10.0 mi North - - N/A   Clear
11:56 PM - - N/A% 30.10 in 10.0 mi North - - N/A   Clear